FENGYUN 1C DEB

Satellite information

Favourite Embed

Satellite Type and Status

DEBRISIN ORBIT

Key statistics

Satellite FENGYUN 1C DEB at a glance.

Uptime

9555

Days in orbit

Revolutions

≈ 14.5

Per day

Orbit

SSO

Sun Synchronous Orbit

Inclination

99.0

Latest

Satellite identification and parameters

Extended collection of information and parameters for FENGYUN 1C DEB.

Object identification

Identified? True

Debris? True

Object name: FENGYUN 1C DEB

International designator: 1999-025DPL

Object number (NORAD): 35204

Object ID (CCSDS): 35204

Country: PEOPLES REPUBLIC OF CHINA (PRC)

Current information (Y/N): Y

RCS size: SMALL

Orbital parameters

Period: 99.612 minutes

Inclination: 99.01 deg

SMA: 7118.165 km

Apoapsis: 770.264 km

Periapsis: 709.797 km

RAAN: 5.3729 deg

Eccentricy: 0.0042474

Argument of periapsis: 81.3814 deg

Mean anomaly: 49.5979 deg

Mean motion: 14.45608373 rev/day

Mean motion (dot): 0.00005045 rev/day2

B* drag term: 0.001425 1/REarth

Two-line elements (TLE)

Creation date: July 6, 2025, 6:05 p.m.

Reference frame: TEME

Reference center: EARTH

Epoch: July 6, 2025, 12:14 a.m. UTC

TLE line 0: 0 FENGYUN 1C DEB

TLE line 1: 1 35204U 99025DPL 25187.01034209 .00005045 00000-0 14250-2 0 9999

TLE line 2: 2 35204 99.0100 5.3729 0042474 81.3814 49.5979 14.45608373886205

Live tracking on map

Real-time ground track for satellite FENGYUN 1C DEB.

In-orbit conjunctions

A list of the most updated potential collisions computed for object FENGYUN 1C DEB.

Target Orbit TCA Probability of collision Miss distance Type
CZ-6A DEB LEO 2025-01-07 08:41:18 0.000533958 183.0 (m) DEBRIS
NOAA 17 DEB SSO 2024-11-15 16:35:07 0.0001915338 448.0 (m) DEBRIS
CZ-6A DEB LEO 2024-09-19 03:26:25 0.0001198468 154.0 (m) DEBRIS
FENGYUN 1C DEB SSO 2024-06-22 18:26:18 0.00016475 68.0 (m) DEBRIS

Associated space launch

Chinese polar orbiting meteorological satellite

FENGYUN 1C DEB was lifted into orbit during the mission ‘Long March 4B | Feng Yun 1C’, on board a Long March 4B space rocket.

The launch took place on May 10, 1999, 1:33 a.m. from Launch Complex 7.

For more information about the launch, click the button.

Launch to space Long March 4B | Feng Yun 1C
Long March 4B | Feng Yun 1C

Agency: N/A

Status: Launch Successful

Launch date: May 10, 1999, 1:33 a.m. UTC

Rocket: Long March 4B

Launch pad: Launch Complex 7

Location: Taiyuan Satellite Launch Center, People's Republic of China

...

Latest news about this satellite

There are no fresh news available about this satellite. Check back as we update our databases every day.


Newsletter sign-up

Weekly statistics, charts and insights to help you stay on top of the space industry.